Location: Mahannah Oil Field
(37.4664°N, 96.6003°W)
Time: 07:16:52
(UTC+00:00)

Transit 2A Rocket - Pass Details

Date: 25 January 2021
Orbit: 594 x 909 km, 66.7° (Epoch: 03 March)

Event Time Altitude Azimuth Distance (km) Brightness Sun altitude
Rises 16:50:09 0° 172° (S) 3,403 9.4 28.2°
Reaches altitude 10° 16:53:09 10° 159° (SSE) 2,423 9.3 28.5°
Maximum altitude 16:57:24 23° 109° (ESE) 1,637 7.7 28.9°
Drops below altitude 10° 17:01:25 10° 58° (ENE) 2,274 7.5 29.3°
Sets 17:04:08 0° 44° (NE) 3,142 8.0 29.5°
